FW4468 Weather Reports


time (UTC)temp
F
wind
direction
speed
knots
gust
knots
rain 1hr
in
rain 24hr
in
rain mn
in
humidity
%
barometer
mb
20260906203052 73 74 0.9 7.0 0.00 0.00 0.00 39 1014.3
20260906201549 73 97 1.7 7.8 0.00 0.00 0.00 40 1014.4
20260906200051 72 25 1.7 7.0 0.00 0.00 0.00 40 1014.5
20260906194543 72 259 0.9 4.3 0.00 0.00 0.00 42 1014.6
20260906193041 72 24 1.7 7.8 0.00 0.00 0.00 41 1014.7
20260906191543 71 286 1.7 7.8 0.00 0.00 0.00 43 1014.8
20260906190037 70 199 1.7 8.7 0.00 0.00 0.00 44 1014.9
20260906184534 70 104 1.7 8.7 0.00 0.00 0.00 44 1015.1
20260906183037 69 9 2.6 7.0 0.00 0.00 0.00 45 1015.5
20260906181533 68 173 1.7 5.2 0.00 0.00 0.00 45 1015.4
20260906180027 68 65 1.7 7.8 0.00 0.00 0.00 48 1015.4
20260906174526 67 94 2.6 7.8 0.00 0.00 0.00 48 1015.2
20260906173022 66 28 0.9 5.2 0.00 0.00 0.00 52 1015.2
20260906171519 65 5 1.7 10.4 0.00 0.00 0.00 54 1015.3
20260906170015 64 88 1.7 7.8 0.00 0.00 0.00 56 1015.4
20260906164512 62 99 0.9 7.8 0.00 0.00 0.00 58 1015.5
20260906163007 61 304 1.7 7.0 0.00 0.00 0.00 60 1015.4
20260906161504 60 118 0.9 8.7 0.00 0.00 0.00 61 1015.5
20260906160003 59 71 0.9 6.1 0.00 0.00 0.00 61 1015.6
20260906154559 59 9 1.7 7.8 0.00 0.00 0.00 62 1015.5
20260906153101 58 217 0.9 7.0 0.00 0.00 0.00 62 1015.5
20260906151556 57 265 0.9 5.2 0.00 0.00 0.00 63 1015.5
20260906150051 56 210 0.0 3.5 0.00 0.00 0.00 64 1015.3
20260906144549 56 166 0.0 3.5 0.00 0.00 0.00 65 1015.3
20260906143052 55 17 0.0 3.5 0.00 0.00 0.00 65 1015.2
20260906141547 55 309 0.0 2.6 0.00 0.00 0.00 65 1015.3
20260906140056 55 144 0.0 1.7 0.00 0.00 0.00 65 1015.3
20260906134547 55 170 0.0 1.7 0.00 0.00 0.00 66 1015.2
20260906133046 55 119 0.0 3.5 0.00 0.00 0.00 66 1015.1
20260906131559 54 180 0.9 6.1 0.00 0.00 0.00 67 1015.0
20260906130046 53 110 0.0 2.6 0.00 0.00 0.00 67 1015.0
20260906124544 52 154 0.0 1.7 0.00 0.00 0.00 68 1015.0
20260906123045 52 163 0.0 1.7 0.00 0.00 0.00 67 1015.2
20260906121541 52 159 0.0 0.9 0.00 0.00 0.00 67 1015.2
20260906120040 53 146 0.0 0.9 0.00 0.00 0.00 67 1015.3
20260906114540 53 144 0.0 0.9 0.00 0.00 0.00 67 1015.3
20260906113039 53 142 0.0 0.9 0.00 0.00 0.00 68 1015.4
20260906111535 53 142 0.0 0.9 0.00 0.00 0.00 67 1015.4
20260906110034 53 140 0.0 0.9 0.00 0.00 0.00 67 1015.4
20260906104533 54 140 0.0 0.9 0.00 0.00 0.00 67 1015.3
20260906103031 54 140 0.0 2.6 0.00 0.00 0.00 66 1015.3
20260906101531 55 121 0.0 0.9 0.00 0.00 0.00 66 1015.4
20260906100029 55 176 0.0 1.7 0.00 0.00 0.00 66 1015.3
20260906094529 55 256 0.0 2.6 0.00 0.00 0.00 66 1015.3
20260906093037 55 81 0.0 2.6 0.00 0.00 0.00 66 1015.2
20260906091526 55 123 0.0 2.6 0.00 0.00 0.00 66 1015.3
20260906090026 55 151 0.0 7.0 0.00 0.00 0.00 66 1015.4
20260906084524 55 55 0.0 3.5 0.00 0.00 0.00 65 1015.5
20260906083024 55 138 0.0 2.6 0.00 0.00 0.00 66 1015.6
20260906081526 54 157 0.0 1.7 0.00 0.00 0.00 67 1015.6
20260906080020 54 162 0.0 1.7 0.00 0.00 0.00 67 1015.6
20260906074520 54 162 0.0 0.9 0.00 0.00 0.00 67 1015.7
20260906073016 55 165 0.0 1.7 0.00 0.00 0.00 66 1015.7
20260906071513 55 159 0.0 0.0 0.00 0.00 0.00 65 1015.8
20260906070010 56 159 0.0 0.9 0.00 0.00 0.00 64 1015.9
20260906064514 57 159 0.0 0.9 0.00 0.00 0.00 63 1016.1
20260906063008 57 159 0.0 2.6 0.00 0.00 0.00 62 1015.9
20260906061508 57 238 0.0 1.7 0.00 0.00 0.00 62 1015.9
20260906060013 58 257 0.0 0.9 0.00 0.00 0.00 61 1016.0
20260906054610 58 262 0.0 0.9 0.00 0.00 0.00 61 1016.1
20260906053015 58 256 0.0 0.9 0.00 0.00 0.00 61 1016.1
20260906051505 59 257 0.0 1.7 0.00 0.00 0.00 60 1016.1
20260906050005 59 360 0.0 0.0 0.00 0.00 0.00 59 1016.1
20260906044506 60 281 0.0 1.7 0.00 0.00 0.00 58 1016.1
20260906043004 60 310 0.0 1.7 0.00 0.00 0.00 57 1016.3
20260906041511 61 271 0.0 1.7 0.00 0.00 0.00 55 1016.4
20260906040004 61 140 0.0 1.7 0.00 0.00 0.00 54 1016.5
20260906034504 62 103 0.0 1.7 0.00 0.00 0.00 53 1016.6
20260906033003 63 80 0.0 2.6 0.00 0.00 0.00 51 1016.5
20260906031502 63 91 0.0 0.9 0.00 0.00 0.00 50 1016.4
20260906030002 63 136 0.0 1.7 0.00 0.00 0.00 50 1016.2
20260906024501 63 22 0.0 0.0 0.00 0.00 0.00 50 1016.2
20260906023001 64 22 0.0 0.0 0.00 0.00 0.00 48 1016.1
20260906021503 66 22 0.0 0.0 0.00 0.00 0.00 45 1016.1
20260906020101 67 22 0.0 0.9 0.00 0.00 0.00 41 1016.1
20260906020001 67 22 0.0 0.9 0.00 0.00 0.00 41 1016.0
20260906014611 67 22 0.0 1.7 0.00 0.00 0.00 40 1016.0
20260906013100 68 14 0.9 2.6 0.00 0.00 0.00 39 1016.0
20260906011613 69 140 0.0 2.6 0.00 0.00 0.00 38 1015.9
20260906010058 69 172 0.0 2.6 0.00 0.00 0.00 37 1015.7
20260906004557 70 180 1.7 4.3 0.00 0.00 0.00 35 1015.7
20260906003056 70 169 0.9 4.3 0.00 0.00 0.00 35 1015.6
20260906001600 70 340 0.9 3.5 0.00 0.00 0.00 36 1015.6
20260906000054 71 100 0.0 4.3 0.00 0.00 0.00 37 1015.5
20260905234553 71 109 0.9 2.6 0.00 0.00 0.00 39 1015.6
20260905233108 70 63 0.9 3.5 0.00 0.00 0.00 40 1015.7
20260905231555 72 131 0.9 3.5 0.00 0.00 0.00 38 1015.8
20260905230051 73 140 1.7 3.5 0.00 0.00 0.00 34 1015.9
20260905224608 75 145 0.9 6.1 0.00 0.00 0.00 35 1015.8
20260905223053 75 68 0.0 3.5 0.00 0.00 0.00 37 1015.8
20260905221546 73 43 1.7 4.3 0.00 0.00 0.00 36 1015.8
20260905220049 73 240 1.7 6.1 0.00 0.00 0.00 37 1015.9
20260905214544 74 186 1.7 6.1 0.00 0.00 0.00 39 1016.0
20260905213043 74 196 0.9 3.5 0.00 0.00 0.00 37 1016.1
20260905211539 74 164 0.0 4.3 0.00 0.00 0.00 41 1016.1
20260905210036 72 178 1.7 7.0 0.00 0.00 0.00 44 1016.2
20260905204533 71 127 0.0 5.2 0.00 0.00 0.00 47 1016.2